Simultaneous Nadir Overpasses (SNOs) Predictions

Prediction of SNOs between GOES-15 and NOAA-20 Satellite Orbit:

Table of predicted SNOs for the next 14.0 days since TLE Epoch: 5/18/2024
Index Date Time (GOES-15) GOES-15 Lat,Lon NOAA-20 Lat,Lon Distance(km) Time Diff (sec)
1 05/18/2024 09:18:30 -0.04, 61.70 0.01, 61.96 29.21 80
2 05/20/2024 21:18:47 0.03, 61.76 0.16, 61.24 59.46 80
3 05/21/2024 21:02:41 0.03, 61.78 -0.87, 65.77 455.52 80
4 05/23/2024 09:21:53 -0.01, 61.82 -0.33, 60.49 152.45 80
5 05/24/2024 09:05:47 -0.02, 61.85 0.71, 65.02 361.93 80
6 05/25/2024 21:24:51 -0.01, 61.90 0.48, 59.76 243.58 80
7 05/26/2024 21:08:44 0.00, 61.93 -0.51, 64.30 270.58 80
8 05/28/2024 09:27:56 0.02, 61.97 -0.67, 59.01 338.11 80
9 05/29/2024 09:11:48 0.01, 62.01 0.33, 63.56 175.85 80
10 05/30/2024 21:30:54 -0.03, 62.07 0.79, 58.28 430.46 80
11 05/31/2024 21:14:45 -0.02, 62.10 -0.16, 62.84 83.61 80
